Weather History for Molokai, HI

Change the Weather History Date:

Wednesday, September 18, 2013

  Actual Average Record
Temperature  
Mean Temperature 78 °F -  
Max Temperature 84 °F 85 °F 91 °F (1973)
Min Temperature 73 °F 71 °F 66 °F (1961)
Cooling Degree Days 14    
Growing Degree Days 28 (Base 50)    
Moisture  
Dew Point 70 °F    
Average Humidity 80    
Maximum Humidity 94    
Minimum Humidity 58    
Precipitation  
Precipitation 0.01 in - - ()
Sea Level Pressure  
Sea Level Pressure 29.99 in    
Wind  
Wind Speed 12 mph (NE)    
Max Wind Speed 20 mph    
Max Gust Speed 29 mph    
Visibility 10 miles    
Events      
Averages and records for this station are not official NWS values.
T = Trace of Precipitation, MM = Missing Value Source: NWS Daily Summary

Daily Weather History Graph

Daily Weather History Graph

Search for Another Location

Airport:

Trip Planner

Search our weather history database for the weather conditions in past years. The results will help you decide how hot, cold, wet, or windy it might be!

Date:

Astronomy

Sep. 18, 2013 Rise Set
Actual Time 6:16 AM HST 6:28 PM HST
Civil Twilight 5:54 AM HST 6:50 PM HST
Nautical Twilight 5:28 AM HST 7:16 PM HST
Astronomical Twilight 5:02 AM HST 7:41 PM HST
Moon 6:01 PM HST (9/18) 5:31 AM HST (9/18)
Length of Visible Light 12h 56m
Length of Day
12h 11m
Full, 100% of the Moon is Illuminated
Sep 18
Full
Sep 19
Full
Sep 26
Last Quarter
Oct 4
New
Oct 11
First Quarter

Hourly Weather History & Observations

Time (HST) Temp. Heat Index Dew Point Humidity Pressure Visibility Wind Dir Wind Speed Gust Speed Precip Events Conditions
12:54 AM 73.0 °F - 71.1 °F 93% 30.01 in 10.0 mi NNE 9.2 mph - N/A   Clear
1:54 AM 73.0 °F - 71.1 °F 93% 30.00 in 10.0 mi NE 11.5 mph - 0.00 in   Clear
2:54 AM 73.9 °F - 71.1 °F 91% 29.99 in 10.0 mi NE 9.2 mph 20.7 mph N/A   Partly Cloudy
3:40 AM 73.4 °F - 71.6 °F 94% 29.97 in 10.0 mi NE 11.5 mph - 0.01 in   Partly Cloudy
3:54 AM 73.0 °F - 71.1 °F 93% 29.97 in 10.0 mi NE 11.5 mph 18.4 mph 0.01 in   Clear
4:54 AM 73.9 °F - 71.1 °F 91% 29.97 in 10.0 mi NE 8.1 mph 21.9 mph N/A   Mostly Cloudy
5:54 AM 73.9 °F - 70.0 °F 87% 29.99 in 10.0 mi NE 9.2 mph 18.4 mph N/A   Partly Cloudy
6:54 AM 73.9 °F - 71.1 °F 91% 29.99 in 10.0 mi NNE 11.5 mph 20.7 mph N/A   Scattered Clouds
7:54 AM 77.0 °F - 71.1 °F 82% 30.01 in 10.0 mi NE 12.7 mph 21.9 mph N/A   Clear
8:54 AM 80.1 °F 82.9 °F 69.1 °F 69% 30.02 in 10.0 mi NE 12.7 mph 19.6 mph N/A   Partly Cloudy
9:54 AM 81.0 °F 84.9 °F 71.1 °F 72% 30.03 in 10.0 mi NE 12.7 mph 21.9 mph N/A   Clear
10:54 AM 82.0 °F 85.9 °F 70.0 °F 67% 30.02 in 10.0 mi NE 16.1 mph 24.2 mph N/A   Clear
11:54 AM 82.9 °F 86.5 °F 69.1 °F 63% 30.01 in 10.0 mi NE 13.8 mph 21.9 mph N/A   Clear
12:54 PM 84.0 °F 87.0 °F 68.0 °F 58% 29.98 in 10.0 mi NE 19.6 mph 28.8 mph N/A   Scattered Clouds
1:54 PM 84.9 °F 89.4 °F 70.0 °F 61% 29.97 in 10.0 mi NNE 12.7 mph 23.0 mph N/A   Scattered Clouds
2:54 PM 82.9 °F 86.5 °F 69.1 °F 63% 29.96 in 10.0 mi NE 13.8 mph 24.2 mph N/A   Scattered Clouds
3:54 PM 82.0 °F 85.9 °F 70.0 °F 67% 29.96 in 10.0 mi NE 18.4 mph 26.5 mph N/A   Partly Cloudy
4:54 PM 80.1 °F 83.2 °F 70.0 °F 71% 29.96 in 10.0 mi NE 16.1 mph 28.8 mph N/A   Clear
5:54 PM 78.1 °F - 71.1 °F 79% 29.96 in 10.0 mi NNE 18.4 mph 27.6 mph N/A   Clear
6:54 PM 75.9 °F - 71.1 °F 85% 29.99 in 10.0 mi NE 13.8 mph 24.2 mph N/A   Clear
7:54 PM 75.0 °F - 71.1 °F 87% 30.01 in 10.0 mi NE 11.5 mph 18.4 mph N/A   Clear
8:54 PM 75.0 °F - 70.0 °F 84% 30.02 in 10.0 mi NE 10.4 mph 18.4 mph N/A   Clear
9:54 PM 75.0 °F - 69.1 °F 82% 30.03 in 10.0 mi NNE 8.1 mph - N/A   Clear
10:54 PM 75.0 °F - 71.1 °F 87% 30.02 in 10.0 mi NE 9.2 mph - N/A   Clear
11:54 PM 75.0 °F - 70.0 °F 84% 30.01 in 10.0 mi NE 11.5 mph - N/A   Clear